User: anonymous   Login
Location: ?????
(33.6267°N, 35.4675°E)
Time: 10:30:42
(UTC+00:00)
Language:

Cosmos 2084 - Orbit

View from above orbital plane
View from above orbital plane
View from above satellite
View from above satellite

Ground track
Ground track

The orbit data is extracted from the following two-line orbital elements,

1 20663U 90055A   20019.19668683 -.00000066  00000-0  11793-4 0  9993
2 20663  62.7956 309.8554 0042927 206.7816 153.1062 14.92047720600945
Epoch (UTC): 19 January 2020 04:43:13
Eccentricity: 0.0042927
inclination: 62.7956°
perigee height: 561 km
apogee height: 621 km
right ascension of ascending node: 309.8554°
argument of perigee: 206.7816°
revolutions per day: 14.92047720
mean anomaly at epoch: 153.1062°
orbit number at epoch: 60094

The dashed part of the orbit path shows where the satellite is in the earth's shadow,  

DLR